Content
SEND FEEDBACK

Daily
Averages
Monthly
Summary
United States of America

RAPID CITY, SOUTH DAKOTA


Home > North America > United States > South Dakota
Elevation: 3162 feet     Latitude: 44 03N     Longitude: 103 04W

WEATHER
 
SELECT A DAY
Number of Records: 202,792;   Date Range: 1/1/95 - 9/30/14
 
SHARE

PRINT THIS DATA

[ ← Previous Day ]
WEATHER ALMANAC - JANUARY 7, 2013
[ Next Day → ]
[ °C ]   °F
Weather ElementAverageHighLow
Temperature31.5 °F45 °F (11:52 am)23 °F (6:52 pm)
Dewpoint19.3 °F24.1 °F (9:52 am)15.1 °F (1:52 am)
Humidity62.7 %78 % (6:52 pm)39 % (1:52 pm)
Barometer29.93 in30.06 in (7:52 am)29.72 in (11:52 pm)
Wind Speed6.2 mph11.5 mph (4:52 am)
Weather ElementAverage
Visibility10 mi
Wind DirectionSSE (174.3 °)

Weather ElementTotal
Precipitation---
Heating Degree Days31 (Base 65)
Averaged from 23 records on January 7, 2013
WEATHER CONDITIONS BREAKOUT
WIND DIRECTION BREAKOUT
WEATHER BY HOUR - JANUARY 7, 2013
[ °C ]   °F
Local TimeTemperatureDewpointHumidityBarometerVisibilityWind DirectionWind SpeedGust SpeedPrecipitationEventsConditions
1:52 AM30.0 °F15.1 °F54 %29.92 in10.0 miSSW (210°)3.5 mphClear
2:52 AM30.9 °F17.1 °F57 %29.92 in10.0 miNNW (330°)9.2 mphClear
3:52 AM26.1 °F17.1 °F69 %29.95 in10.0 miNW (310°)8.1 mphClear
4:52 AM28.9 °F19.0 °F67 %29.99 in10.0 miNNW (340°)11.5 mphClear
5:52 AM28.9 °F19.0 °F67 %30.02 in10.0 miNNW (330°)11.5 mphClear
6:52 AM24.1 °F16.0 °F71 %30.05 in10.0 miSouth (170°)3.5 mphClear
7:52 AM24.1 °F17.1 °F75 %30.06 in10.0 miWest (280°)5.8 mphClear
8:52 AM33.1 °F21.0 °F61 %30.04 in10.0 miWest (270°)4.6 mphClear
9:52 AM39.0 °F24.1 °F55 %30.02 in10.0 miSouth (190°)5.8 mphClear
10:52 AM43.0 °F24.1 °F47 %29.99 in10.0 miSouth (170°)9.2 mphClear
11:52 AM45.0 °F23.0 °F42 %29.94 in10.0 miSouth (180°)10.4 mphClear
12:52 PM44.1 °F21.0 °F40 %29.92 in10.0 miSouth (180°)9.2 mphClear
1:52 PM45.0 °F21.0 °F39 %29.91 in10.0 miSSE (150°)10.4 mphClear
2:52 PM44.1 °F21.0 °F40 %29.91 in10.0 miESE (120°)6.9 mphClear
3:52 PM37.9 °F21.9 °F53 %29.93 in10.0 miSE (130°)4.6 mphClear
4:52 PM30.9 °F19.9 °F64 %29.93 in10.0 miNE (40°)10.4 mphClear
5:52 PM25.0 °F18.0 °F75 %29.93 in10.0 miNNE (20°)6.9 mphClear
6:52 PM23.0 °F17.1 °F78 %29.93 in10.0 miWest (280°)5.8 mphClear
7:52 PM23.0 °F17.1 °F78 %29.91 in10.0 miNW (310°)5.8 mphClear
8:52 PM23.0 °F17.1 °F78 %29.86 in10.0 miCalmClear
9:52 PM24.1 °F18.0 °F77 %29.82 in10.0 miCalmPartly Cloudy
10:52 PM25.0 °F19.0 °F78 %29.77 in10.0 miCalmScattered Clouds
11:52 PM26.1 °F19.9 °F78 %29.72 in10.0 miCalmOvercast
Hourly data recorded from KRAP, located miles away from Rapid City, South Dakota







STORIES FROM OUR PARTNERS